www.pogodaiklimat.ru

Погода и климат >> Архив погоды >> Россия >> Пермский край >> Усть-Черная


ПОГОДА в Усть-Черной

  • Прогноз погоды в Усть-Черной
  • Монитор погоды в Усть-Черной

АРХИВ ПОГОДЫ в Усть-Черной

Время (UTC), дата Ветер
(напр.,м/с)
 
Видим.   Явления Облачность Т
(С)
Тd
(С)
f
(%)
Тe
(С)
Тes
(С)
Комфортность P
(гПа)
Po
(гПа)
Тmin
(С)
Tmax
(С)
R
(мм)
R24
(мм)
S
(см)
03 14.07 СЗ 2 50 км 10/10 600 м
[Sc]
+11.2 +10.8 97 +10 +10 1009.2 987.4 +7.5
06 14.07 С 2 50 км 10/4 600 м
[Sc As trans]
+16.5 +12.3 76 +17 +19 1007.9 986.6
09 14.07 СЗ 2 10 км ливневой дождь 10/10 600 м
[Cb cap]
+15.6 +13.8 89 +15 +15 1007.5 986.1
12 14.07 СЗ 2 20 км слаб. дождь 10/3 300 м
[Frnb As op]
+15.2 +14.2 94 +15 +16 1008.0 986.5
15 14.07 СЗ 2 50 км {дождь} 6/3 600 м
[Sc diur, vesp Ac As]
+17.3 +12.2 72 +18 +18 1009.3 988.0 +17.5 2
18 14.07 З 1 50 км {дождь} 4/3 600 м
[Sc diur, vesp Cs]
+11.8 +11.2 96 +12 +12 1010.3 988.5
21 14.07 штиль 0 50 км местами туман поземный ясно +11.0 +10.5 97 +10 +10 1011.0 989.1
00 15.07 штиль 0 4000 м дымка ясно +7.9 +7.5 97 +7 +7 1011.5 989.3
03 15.07 СВ 1 20 км {туман} 6/0 2000 м
[Ac cuf Cs]
+14.1 +12.3 89 +14 +17 1011.6 990.0 +7.5
06 15.07 СВ 3 50 км {туман} 10/0 2000 м
[As op]
+17.8 +13.8 77 +18 +20 1009.9 988.6
09 15.07 СВ 4 50 км 10/1 600 м
[Sc As op]
+19.4 +12.9 66 +21 +22 комфорт 1008.6 987.4
12 15.07 СВ 1 20 км ливневой дождь 10/10 600 м
[Cb cap]
+15.5 +14.3 93 +16 +16 1008.0 986.6
18 15.07 С 4 50 км в посл. час дождь {ливн. осадки} 10/4 600 м
[Cb cap As op]
+14.1 +13.3 95 +13 +13 1004.0 982.5
00 16.07 СЗ 3
{11}
50 км {гроза, ливн. осадки} 10/10 600 м
[Cb cap]
+13.4 +12.8 96 +12 +12 999.3 977.9
03 16.07 СЗ 4
{11}
50 км слаб. ливневой дождь 10/10 600 м
[Cb cap]
+12.8 +11.8 94 +11 +11 999.2 977.7 +12.8 22
06 16.07 СЗ 3
{12}
50 км слаб. дождь {гроза} 10/6 300 м
[St As op]
+12.6 +10.8 89 +11 +12 1000.8 979.3 +12.5
09 16.07 СЗ 5-15
{15}
50 км {дождь} 9/6 300 м
[St As trans]
+17.8 +10.2 61 +17 +19 1002.7 981.5
12 16.07 СЗ 4-10
{15}
50 км {дождь} 10/6 600 м
[Cu hum As trans Ci fib]
+20.0 +10.7 55 +22 +23 комфорт 1005.1 984.0
15 16.07 З 3
{11}
50 км 10/3 600 м
[Cb cap Ac As Ci fib]
+18.6 +13.0 70 +19 +20 1007.4 986.2 +20.7 0.8
18 16.07 З 2 50 км 8/0 2000 м
[As trans]
+16.0 +12.0 77 +16 +16 1009.7 988.2
21 16.07 З 2 50 км 3/0 2000 м
[As trans]
+14.1 +11.0 82 +14 +14 1011.7 990.1
00 17.07 З 2 50 км 3/0 2000 м
[As trans]
+11.0 +9.8 92 +10 +10 1013.7 991.8
03 17.07 З 1 50 км 4/4 600 м
[Sc]
+15.2 +10.9 75 +16 +18 1014.8 993.2 +10.8
06 17.07 С 2 50 км 6/6 600 м
[Cu hum]
+20.0 +9.1 49 +22 +26 комфорт 1014.9 993.6
09 17.07 З 3 50 км 9/9 600 м
[Cu hum]
+22.1 +8.3 41 +23 +24 комфорт 1014.6 993.4
12 17.07 СЗ 2 50 км 9/9 600 м
[Cu hum]
+21.4 +9.4 46 +23 +24 комфорт 1014.6 993.4
15 17.07 С 3 50 км 3/3 600 м
[Cu hum]
+21.5 +6.9 39 +22 +23 комфорт 1014.2 993.0 +23.2
18 17.07 СЗ 2 50 км 3/3 600 м
[Sc diur, vesp]
+15.0 +8.3 64 +15 +15 1015.1 993.5
21 17.07 З 1 50 км ясно +7.9 +7.0 94 +7 +7 1015.5 993.3
00 18.07 СЗ 1 50 км ясно +7.0 +6.3 95 +6 +6 1015.7 993.4
03 18.07 С 1 50 км ясно +13.8 +8.4 70 +14 +18 1015.0 993.3 +6.3
06 18.07 СЗ 2 50 км 3/0
[Ci fib]
+18.2 +4.5 40 +19 +28 1014.0 992.6
09 18.07 С 3 50 км 4/3 600 м
[Sc Ci fib]
+21.0 +3.5 32 +22 +29 комфорт 1012.6 991.4
12 18.07 С 2 50 км 3/3 600 м
[Sc]
+22.2 +9.1 43 +24 +29 комфорт 1011.6 990.6
15 18.07 СВ 3 50 км 4/3 600 м
[Sc diur, vesp Ci fib]
+19.6 +10.3 55 +21 +22 комфорт 1011.8 990.5 +22.4
18 18.07 В 1 50 км 3/0 2000 м
[Ac lent]
+13.5 +10.2 80 +14 +14 1012.6 990.9
21 18.07 С 1 50 км ясно +8.7 +8.1 96 +8 +8 1012.7 990.6
00 19.07 штиль 0 50 км ясно +5.6 +5.1 97 +4 +4 1012.6 990.2
03 19.07 штиль 0 50 км ясно +13.7 +8.7 72 +13 +17 1011.9 990.2 +5.6
06 19.07 ЮЗ 1 50 км 3/0 2000 м
[Ac trans]
+18.7 +9.0 53 +20 +30 1010.5 989.2
09 19.07 З 2 50 км ясно +22.1 +6.6 37 +23 +36 комфорт 1009.1 988.1
12 19.07 В 1 50 км 3/0
[Ci fib]
+24.4 +6.1 31 +24 +33 комфорт 1008.6 987.7
15 19.07 ЮЗ 1 50 км 8/0
[Cc]
+24.1 +5.6 30 +24 +25 комфорт 1008.2 987.3 +25.3
18 19.07 Ю 1 50 км 10/0 2000 м
[Ac lent Cc]
+18.0 +9.8 59 +19 +19 1008.8 987.5
21 19.07 Ю 1 10 км слаб. ливневой дождь 10/8 600 м
[Cb cap As trans Cs]
+16.4 +10.7 69 +17 +17 1008.8 987.4
00 20.07 ЮЗ 1 50 км {ливн. осадки} 10/10 600 м
[Cb cap]
+14.3 +13.1 92 +15 +15 1009.6 988.0
03 20.07 ЮВ 1 50 км 8/4 600 м
[Sc Cs]
+16.6 +14.3 86 +17 +19 1009.0 987.6 +13.2 0.3
06 20.07 ЮЗ 2 50 км 8/8 600 м
[Cu med, cong]
+23.2 +14.1 57 +27 +29 душно 1008.6 987.7
09 20.07 З 2 50 км 9/8 600 м
[Cu med, cong Ci]
+25.7 +12.3 43 +27 +30 жарко 1008.2 987.4
12 20.07 Ю 2 50 км в посл. час гроза 10/8 600 м
[Cb cap As trans]
+25.0 +13.4 49 +27 +28 жарко 1008.2 987.5
15 20.07 В 2 50 км гроза, ливневой дождь 9/9 600 м
[Cb cap]
+19.1 +16.1 83 +21 +21 комфорт 1009.0 987.8 +26.7 2
18 20.07 штиль 0 50 км {гроза, ливн. осадки} 3/3 600 м
[Cb cap]
+16.7 +15.7 94 +17 +17 1009.0 987.6
21 20.07 штиль 0 50 км 3/3 600 м
[Sc diur, vesp]
+14.6 +14.1 97 +14 +14 1008.6 987.1

 

Местоположение метеостанции Усть-Черная (Пермский край, Россия): широта 60.47 долгота 52.63 высота над уровнем моря 183 м.

В архиве по умолчанию представлена погода в Усть-Черной за последнюю неделю. Архивные данные за месяц целиком и за предыдущие месяцы, начиная с января 2011 года, Вы можете получить, выбрав интересующий диапазон дат из раскрывающегося списка и нажав кнопку "Ввод!".


*Определитесь, кто Вы:
робот инопланетянин человек

Внимание! Время в таблицах - всемирное. Для получения местного времени необходимо прибавить поправку, которая равна 5 ч.

Смотрите также архив погоды в соседних городах и на ближайших метеорологических станциях:

Погода в Койгородке (Коми, Россия) (91 км)
Погода в Гайнах (Пермский край, Россия) (97 км)
Погода в Кирсе (Кировская область, Россия) (126 км)
Погода в Кочево (Пермский край, Россия) (141 км)
Погода в Косе (Пермский край, Россия) (143 км)
Погода в Усть-Куломе (Коми, Россия) (146 км)
Погода в Пустоши (Коми, Россия) (147 км)
Погода в Нагорске (Кировская область, Россия) (163 км)
Погода в Объячеве (Коми, Россия) (164 км)
Погода в Сыктывкаре (Коми, Россия) (167 км)

Пояснения к столбцам:

Ветер - указаны скорость ветра в м/с - средняя за 10 мин, порывы в срок и между сроками (в фигурных скобках) и направление, откуда дует ветер: С - северный, СВ - северо-восточный, В - восточный, ЮВ - юго-восточный, Ю - южный, ЮЗ - юго-западный, З - западный, СЗ - северо-западный.
Видимость - горизонтальная дальность видимости в метрах или километрах. При видимости от 1 до 10 км при отсутствии осадков обычно наблюдается дымка, при ухудшении видимости до 1 км и менее - туман. В сухую погоду видимость может ухудшаться дымом, пылью или мглою.
Явления - указаны атмосферные явления, наблюдавшиеся в срок или в последний час перед сроком; фигурными скобками обозначены явления, наблюдавшиеся между сроками (за 1-3 часа до срока); квадратными скобками обозначены град или гололедные отложения с указанием их диаметра в мм.
Облачность - указаны через наклонную черту общая и нижняя облачность в баллах и высота нижней границы облаков в метрах; квадратными скобками обозначены формы облаков: Ci - перистые, Cs - перисто-слоистые, Cc - перисто-кучевые, Ac - высококучевые, As - высокослоистые, Sc - слоисто-кучевые, Ns - слоисто-дождевые, Cu - кучевые, Cb - кучево-дождевые. Подробнее классификацию облаков см. в Атласе облаков (PDF).
T - Температура воздуха - температура, измеренная на высоте 2 м над землей.
Td - Температура точки росы - температура, при понижении до которой содержащийся в воздухе водяной пар достигнет насыщения.
f - Относительная влажность воздуха - влажноcть воздуха, измеренная на высоте 2 м над землей.
Te - Эффективная температура - температура, которую ощущает одетый по сезону человек в тени. Характеристика душности погоды. При расчете учитывается влияние влажности воздуха и скорости ветра на теплоощущения человека.
Tes - Эффективная температура на солнце - температура, которую ощущает человек, с поправкой на солнечный нагрев. Характеристика знойности погоды. Зависит от высоты солнца над горизонтом, облачности и скорости ветра. Ночью, в пасмурную погоду, а также при ветре 12 м/с и более поправка равна нулю.
P - Атмосферное давление - приведенное к уровню моря атмосферное давление.
Po - Атмосферное давление - измеренное на уровне метеостанции атмосферное давление.
Tmin - Минимальная температура - минимум температуры воздуха на высоте 2 м над землей.
Tmax - Максимальная температура - максимум температуры воздуха на высоте 2 м над землей.
R - Количество осадков - Количество выпавших осадков за период времени, мм. При наведении курсора мыши на число - период времени, за который выпало указанное количество осадков.
R24 - Количество осадков - Количество выпавших осадков за 24 часа, мм.
S - Снежный покров - Высота снежного покрова, см. При наведении курсора мыши на число - состояние снежного покрова и степень покрытия местности в баллах.